Precipitable_Water
1.64 1.65 1.63 1.63 1.63 1.71 1.67 1.67 1.73 1.78 1.71 1.59 1.44 1.39 1.56 1.65 1.62 1.55 1.45 1.48 1.53 1.54 1.55 1.49 1.47 1.56 1.57 1.60 1.63 1.66 1.63 1.61 1.39 1.61 1.74 1.86 1.92 1.94 2.03 2.08 2.15 2.14 2.18
1.58 1.71 1.72 1.71 1.74 1.72 1.67 1.73 1.78 1.80 1.85 1.72 1.60 1.42 1.47 1.65 1.66 1.56 1.44 1.37 1.26 1.29 1.37 1.35 1.31 1.43 1.46 1.56 1.59 1.60 1.57 1.61 1.50 1.38 1.57 1.65 1.72 1.86 1.95 2.01 2.09 2.21 2.19
1.64 1.54 1.45 1.47 1.71 1.76 1.81 1.87 1.89 1.87 1.93 1.87 1.69 1.51 1.46 1.62 1.65 1.62 1.59 1.46 1.23 1.19 1.23 1.24 1.31 1.42 1.39 1.49 1.56 1.56 1.54 1.61 1.60 1.54 1.47 1.64 1.72 1.81 1.85 1.99 2.03 2.10 2.14
1.36 1.48 1.47 1.48 1.53 1.80 1.88 1.93 2.02 2.04 2.00 1.97 1.92 1.71 1.59 1.68 1.84 1.76 1.68 1.58 1.28 1.24 1.26 1.35 1.39 1.42 1.41 1.46 1.52 1.49 1.53 1.51 1.56 1.48 1.45 1.43 1.53 1.62 1.66 1.68 1.68 1.82 1.86
1.41 1.42 1.48 1.52 1.57 1.79 1.90 1.92 1.88 1.87 1.88 1.93 1.99 1.97 1.82 1.69 1.80 1.90 1.77 1.65 1.36 1.35 1.41 1.40 1.47 1.44 1.49 1.54 1.48 1.50 1.46 1.38 1.37 1.33 1.29 1.26 1.29 1.39 1.34 1.47 1.49 1.58 1.64
1.52 1.53 1.65 1.68 1.75 1.80 1.87 1.87 1.80 1.74 1.68 1.72 1.82 1.89 1.94 1.78 1.82 1.94 1.96 1.68 1.56 1.48 1.39 1.41 1.46 1.48 1.46 1.46 1.47 1.43 1.47 1.32 1.24 1.21 1.20 1.14 1.14 1.22 1.33 1.36 1.38 1.31 1.21
1.56 1.65 1.67 1.62 1.53 1.55 1.53 1.48 1.45 1.43 1.56 1.59 1.62 1.73 1.81 1.90 1.85 1.95 2.01 1.92 1.76 1.68 1.64 1.55 1.39 1.47 1.50 1.42 1.42 1.38 1.31 1.37 1.33 1.28 1.16 1.16 1.16 1.26 1.31 1.23 1.22 1.20 1.18
1.53 1.54 1.57 1.61 1.53 1.49 1.50 1.49 1.50 1.52 1.41 1.46 1.49 1.59 1.85 2.01 1.95 1.87 2.00 2.03 1.73 1.70 1.78 1.70 1.55 1.49 1.43 1.39 1.37 1.35 1.29 1.30 1.35 1.31 1.26 1.25 1.28 1.31 1.30 1.28 1.29 1.27 1.28
1.48 1.56 1.61 1.70 1.62 1.56 1.48 1.48 1.47 1.44 1.44 1.46 1.56 1.69 1.79 1.90 1.93 2.00 1.95 1.96 1.79 1.75 1.77 1.78 1.67 1.51 1.45 1.42 1.33 1.32 1.31 1.26 1.38 1.40 1.41 1.46 1.45 1.43 1.38 1.29 1.13 1.09 1.05
1.29 1.34 1.45 1.50 1.54 1.55 1.56 1.51 1.48 1.42 1.43 1.49 1.57 1.72 1.87 1.89 1.89 2.02 1.99 1.89 1.78 1.77 1.82 1.76 1.85 1.65 1.62 1.58 1.42 1.34 1.27 1.32 1.38 1.37 1.37 1.43 1.50 1.47 1.44 1.41 1.29 1.10 1.06
1.14 1.14 1.15 1.18 1.24 1.31 1.37 1.46 1.51 1.51 1.50 1.51 1.60 1.69 1.74 1.79 1.85 1.89 1.94 1.84 1.76 1.78 1.82 1.78 1.71 1.73 1.73 1.72 1.64 1.49 1.40 1.49 1.47 1.46 1.40 1.42 1.47 1.48 1.44 1.46 1.44 1.29 1.14
1.11 1.10 1.11 1.09 1.06 1.05 1.10 1.16 1.22 1.27 1.34 1.49 1.60 1.60 1.73 1.76 1.80 1.81 1.87 1.89 1.91 1.87 1.83 1.84 1.73 1.69 1.66 1.70 1.76 1.74 1.59 1.53 1.50 1.50 1.44 1.39 1.39 1.44 1.43 1.48 1.51 1.51 1.48
1.04 0.98 0.98 1.01 0.99 1.01 0.98 1.00 1.03 1.14 1.25 1.33 1.42 1.46 1.55 1.74 1.79 1.88 1.91 1.93 1.84 1.75 1.79 1.82 1.73 1.61 1.78 1.82 1.77 1.81 1.81 1.73 1.62 1.52 1.50 1.43 1.46 1.51 1.64 1.70 1.67 1.52 1.47
1.02 0.96 0.93 0.90 0.89 0.93 0.96 0.98 0.96 1.02 1.11 1.24 1.31 1.33 1.39 1.47 1.58 1.68 1.74 1.73 1.71 1.72 1.75 1.75 1.79 1.78 1.78 1.80 1.79 1.76 1.72 1.70 1.65 1.55 1.48 1.56 1.57 1.48 1.42 1.61 1.55 1.36 1.27
0.98 0.95 0.91 0.91 0.90 0.85 0.90 0.94 0.93 0.97 1.01 1.00 1.03 1.10 1.15 1.20 1.34 1.39 1.37 1.37 1.43 1.54 1.58 1.61 1.64 1.70 1.63 1.61 1.63 1.63 1.63 1.60 1.55 1.56 1.57 1.59 1.55 1.32 1.30 1.37 1.35 1.30 1.12
0.94 0.91 0.91 0.92 0.88 0.84 0.81 0.81 0.91 0.95 1.01 1.01 0.99 0.98 1.02 1.08 1.16 1.21 1.24 1.24 1.27 1.30 1.23 1.17 1.25 1.29 1.31 1.31 1.36 1.38 1.40 1.38 1.41 1.49 1.47 1.46 1.34 1.27 1.29 1.32 1.32 1.25 1.12
0.84 0.92 0.91 0.89 0.83 0.76 0.73 0.72 0.72 0.79 0.88 0.92 0.97 1.01 1.02 0.99 0.96 0.91 0.91 0.93 0.95 0.96 0.93 1.02 1.16 1.21 1.20 1.23 1.27 1.28 1.22 1.26 1.34 1.36 1.34 1.34 1.35 1.38 1.34 1.34 1.30 1.26 1.20
0.93 0.92 0.95 0.86 0.80 0.78 0.70 0.64 0.67 0.63 0.68 0.73 0.87 0.90 0.96 0.99 0.99 0.93 0.88 0.89 0.83 0.86 0.85 0.80 0.76 0.80 0.87 0.97 0.99 1.00 1.19 1.35 1.40 1.42 1.41 1.44 1.46 1.36 1.34 1.25 1.25 1.25 1.26
0.92 0.93 0.93 0.88 0.86 0.83 0.84 0.77 0.76 0.76 0.75 0.74 0.76 0.81 0.88 0.95 0.96 0.89 0.83 0.76 0.72 0.73 0.78 0.82 0.88 0.88 0.88 0.89 0.90 0.95 1.00 1.04 1.14 1.20 1.32 1.32 1.34 1.28 1.27 1.35 1.28 1.26 1.33
0.84 0.87 0.87 0.84 0.82 0.78 0.80 0.81 0.81 0.79 0.75 0.74 0.75 0.78 0.84 0.87 0.85 0.82 0.80 0.78 0.76 0.76 0.78 0.79 0.83 0.85 0.86 0.89 0.93 0.97 0.99 1.03 1.08 1.11 1.15 1.18 1.19 1.16 1.17 1.17 1.23 1.17 1.24
0.75 0.79 0.78 0.75 0.73 0.73 0.74 0.77 0.82 0.81 0.81 0.78 0.80 0.90 0.91 0.86 0.83 0.81 0.78 0.79 0.77 0.78 0.80 0.80 0.80 0.83 0.86 0.87 0.88 0.86 0.85 0.88 0.95 1.01 1.06 1.07 1.15 1.10 1.14 1.23 1.20 1.25 1.15
0.66 0.73 0.73 0.70 0.71 0.69 0.65 0.68 0.71 0.71 0.72 0.73 0.76 0.80 0.80 0.81 0.81 0.79 0.79 0.77 0.80 0.83 0.86 0.85 0.84 0.86 0.89 0.89 0.89 0.87 0.84 0.84 0.87 0.88 0.89 0.93 0.98 1.04 1.09 1.11 1.11 1.10 1.13
0.71 0.74 0.72 0.70 0.69 0.66 0.61 0.61 0.59 0.59 0.58 0.59 0.62 0.66 0.73 0.76 0.80 0.82 0.79 0.79 0.79 0.82 0.85 0.84 0.84 0.84 0.88 0.89 0.90 0.88 0.84 0.83 0.86 0.89 0.88 0.89 0.90 0.92 0.98 0.99 1.02 1.02 1.04
0.63 0.67 0.68 0.69 0.67 0.68 0.66 0.62 0.62 0.60 0.59 0.59 0.61 0.68 0.73 0.77 0.77 0.76 0.76 0.80 0.80 0.84 0.86 0.84 0.86 0.86 0.87 0.88 0.90 0.90 0.91 0.88 0.89 0.91 0.90 0.90 0.90 0.89 0.91 0.92 0.94 0.97 1.01
0.56 0.62 0.63 0.62 0.57 0.59 0.63 0.64 0.67 0.67 0.65 0.61 0.61 0.64 0.71 0.78 0.83 0.82 0.79 0.81 0.81 0.85 0.88 0.91 0.89 0.87 0.87 0.85 0.84 0.78 0.73 0.79 0.87 0.87 0.88 0.87 0.87 0.91 0.91 0.90 0.90 0.91 0.92
0.56 0.61 0.63 0.62 0.58 0.55 0.54 0.55 0.58 0.64 0.66 0.65 0.64 0.64 0.66 0.65 0.73 0.83 0.88 0.87 0.84 0.87 0.91 0.97 0.99 0.92 0.86 0.84 0.79 0.69 0.58 0.57 0.70 0.81 0.81 0.73 0.77 0.86 0.88 0.83 0.82 0.84 0.82
Wind_Speed
32 34 34 34 36 37 37 38 35 32 31 29 27 25 23 21 19 18 17 16 15 15 15 16 17 18 19 20 21 21 20 20 21 20 20 19 19 21 20 23 23 24 23
29 31 31 34 35 37 37 37 37 35 33 32 30 28 26 24 21 19 18 17 16 16 17 17 18 18 19 19 19 19 20 19 18 19 18 17 16 16 18 18 18 20 21
31 31 32 32 34 37 37 37 37 37 35 34 32 31 29 27 25 23 21 19 18 18 18 18 18 18 18 19 19 18 18 17 18 17 16 15 14 13 13 13 16 17 19
26 32 34 34 34 37 37 36 35 35 35 34 34 33 32 31 29 27 24 22 20 19 19 19 18 18 18 18 18 17 16 16 16 16 15 15 14 13 12 12 12 13 15
17 22 26 28 30 31 33 34 34 33 34 33 34 35 35 34 32 30 28 26 24 22 21 19 19 19 18 18 17 17 16 16 15 14 14 14 14 14 13 13 13 14 15
12 16 20 23 26 29 31 32 32 34 33 34 33 35 37 37 36 34 31 29 26 25 24 23 21 20 20 19 19 17 17 16 16 15 14 14 15 15 15 15 15 15 15
9 12 17 22 25 27 29 29 31 33 37 38 36 35 37 38 40 38 35 32 30 27 26 24 25 23 22 20 20 19 17 17 16 16 16 15 15 15 15 16 16 17 17
5 7 10 16 22 29 29 29 30 31 31 35 39 41 40 38 44 43 40 36 35 31 30 29 25 25 24 23 22 20 20 19 18 17 17 16 16 17 17 17 17 17 17
3 4 5 8 11 18 24 24 24 26 26 24 24 27 33 37 31 39 41 37 36 34 32 31 30 27 26 25 24 23 22 21 20 19 19 18 18 18 18 18 18 18 19
1 1 2 4 7 8 14 20 21 20 22 24 24 25 27 26 29 32 35 35 35 35 36 33 32 31 29 28 27 26 24 24 24 22 21 22 21 21 21 21 21 21 21
1 2 2 1 2 4 7 11 15 19 18 18 20 19 21 26 29 31 32 32 32 32 33 32 32 32 33 31 30 29 28 28 27 26 25 24 24 24 25 25 25 25 24
1 1 2 2 2 1 2 4 7 12 13 13 13 13 14 15 17 24 26 27 28 28 31 32 34 33 30 30 31 30 30 30 29 28 28 28 27 27 27 27 28 28 28
3 3 2 2 1 1 1 1 1 3 8 11 11 11 10 10 12 14 17 20 21 23 24 26 28 32 30 30 30 30 30 30 30 31 30 30 30 30 31 30 30 31 32
4 4 4 3 2 2 1 1 0 0 1 4 8 10 12 12 12 12 14 16 17 19 20 22 24 28 32 30 31 32 31 33 36 39 37 35 33 32 32 31 32 33 33
7 6 6 5 4 3 3 3 2 1 1 2 2 4 7 10 12 13 15 16 17 18 20 21 23 24 29 31 33 33 35 34 34 36 36 39 37 35 34 33 35 35 35
8 8 7 7 6 6 5 5 4 4 4 3 3 3 4 5 6 8 10 13 15 17 18 19 21 22 23 25 27 30 33 33 32 31 32 31 33 34 33 33 33 33 33
9 8 8 7 8 8 9 8 8 6 6 6 6 5 5 5 6 7 8 9 10 12 13 15 17 20 23 25 26 27 28 30 31 32 32 31 32 33 34 33 32 31 31
9 9 8 8 7 7 7 8 8 8 8 8 8 8 7 7 7 8 9 9 10 10 12 13 15 16 17 19 22 24 26 28 28 29 31 31 31 32 32 32 31 30 30
8 7 7 7 7 6 6 7 7 8 9 9 9 9 9 9 9 9 9 10 10 11 11 12 13 14 15 16 18 20 21 22 24 25 26 28 28 29 28 28 29 30 29
8 7 7 8 8 8 8 7 7 7 8 8 9 10 9 10 10 10 9 10 10 11 11 11 12 12 13 14 15 16 18 18 20 21 23 25 26 27 28 29 30 29 28
7 8 7 7 7 7 7 8 8 7 6 6 6 6 7 7 9 9 9 9 10 10 10 11 12 12 13 13 14 15 15 16 17 19 20 22 24 25 25 26 25 25 26
8 8 7 7 6 6 5 6 6 6 6 6 7 8 9 10 11 11 11 11 11 12 12 13 14 15 15 16 16 17 16 16 17 17 18 18 19 20 21 23 25 26 25
7 7 7 6 6 6 5 5 4 5 7 9 10 11 12 12 12 12 12 12 12 13 14 15 16 17 18 18 19 19 19 19 19 20 19 19 19 18 17 17 18 18 19
9 9 9 9 8 8 8 8 8 8 9 10 11 12 13 14 15 14 14 14 15 16 16 17 18 19 20 21 21 21 22 22 22 21 20 20 19 17 16 15 15 14 14
12 11 12 12 12 12 12 13 13 13 12 12 12 13 14 16 17 17 16 17 17 17 18 18 19 19 20 20 21 22 23 23 22 21 20 19 18 17 16 15 14 14 13
14 14 13 13 14 14 15 15 16 16 16 16 15 15 15 16 18 19 19 20 20 20 19 19 20 20 20 20 21 22 22 22 21 20 20 19 18 17 16 15 14 14 14
Wind_Direction
234 234 235 237 235 232 235 237 237 238 239 240 242 243 244 247 249 253 257 257 254 250 245 245 248 250 252 255 257 260 261 262 270 277 280 281 276 273 271 261 258 257 254
236 234 237 238 235 233 234 233 236 237 239 240 242 243 244 245 248 251 253 254 253 252 250 252 253 256 256 257 258 258 262 262 267 274 281 280 280 275 269 263 260 255 253
239 238 237 238 235 233 234 234 235 236 239 239 240 242 243 244 246 248 251 251 253 254 254 254 255 256 258 258 257 259 261 263 265 272 277 278 280 276 274 266 259 257 256
245 240 239 239 237 233 233 233 235 235 238 240 241 242 243 243 245 247 247 248 250 252 254 256 256 256 259 258 256 257 259 262 264 268 272 273 274 275 273 268 264 261 257
250 238 233 234 231 229 228 230 233 236 238 240 244 243 243 243 245 245 245 247 248 249 252 253 256 256 257 257 255 256 257 259 263 267 271 271 270 270 272 270 266 266 266
254 239 233 229 228 227 228 232 235 237 241 241 246 246 244 243 243 244 243 244 246 248 251 251 254 254 255 254 253 253 255 256 259 263 268 271 268 268 270 270 268 269 271
248 236 237 235 233 231 234 236 238 244 246 246 249 251 249 245 242 241 241 242 243 249 249 254 251 252 251 250 251 253 255 256 259 262 265 268 271 271 271 270 269 268 269
252 243 246 239 237 233 236 238 240 247 254 252 250 249 248 248 247 240 239 240 243 250 249 252 250 249 245 246 248 251 254 255 257 261 265 267 270 272 271 271 271 271 270
272 249 251 235 234 230 230 235 240 247 251 250 245 247 247 246 249 233 234 240 245 247 248 251 248 248 244 243 245 249 253 256 256 260 264 268 270 270 271 271 271 270 271
289 302 279 253 242 243 236 237 241 248 243 243 253 256 251 246 237 236 235 240 247 247 248 248 246 245 241 244 243 247 251 255 257 260 263 267 269 270 269 269 269 270 270
89 62 38 7 257 251 243 240 240 240 244 248 251 252 252 249 243 238 238 240 244 245 244 243 244 244 245 244 245 247 251 256 258 259 262 266 268 270 271 270 268 267 267
192 26 28 32 34 322 261 259 243 232 232 236 240 241 249 246 240 234 235 238 241 246 243 247 245 242 241 245 244 248 252 255 258 258 262 265 267 270 272 272 269 267 266
265 291 302 316 296 304 345 346 230 223 229 233 233 229 233 234 231 230 227 232 241 246 245 243 242 234 242 246 246 250 251 254 256 258 260 264 266 270 272 273 270 268 267
259 277 282 288 293 284 276 300 4 6 207 215 224 231 234 235 236 236 236 240 247 248 246 246 245 240 244 249 250 253 257 259 262 261 260 264 267 269 271 271 271 270 267
256 265 270 269 273 274 268 257 256 268 258 227 228 226 232 239 243 247 249 251 252 254 254 256 253 253 247 252 258 258 260 264 268 261 261 260 261 269 269 270 272 270 267
259 258 261 256 258 261 263 263 259 252 251 248 249 249 245 247 252 256 258 261 260 261 259 259 256 257 256 260 262 264 264 263 263 261 259 260 261 265 266 270 272 270 267
255 250 251 255 261 261 259 256 252 253 252 258 261 258 262 262 272 272 269 270 270 269 268 267 265 263 262 263 267 271 269 266 264 261 261 262 263 266 267 269 269 269 267
244 245 250 258 260 265 262 254 248 248 251 256 259 260 261 270 283 291 287 284 284 283 281 279 277 276 275 273 274 277 274 269 267 265 262 263 265 268 268 268 267 268 268
242 248 245 247 254 266 266 251 249 255 259 260 259 258 257 266 277 285 287 286 286 287 286 286 286 285 284 283 282 281 280 276 272 269 269 267 268 268 268 267 268 267 268
245 247 249 252 260 264 261 259 262 262 265 266 262 259 257 266 273 282 284 285 288 291 292 294 295 296 296 295 292 289 286 284 280 276 274 273 272 269 269 269 268 266 266
246 246 252 259 266 267 258 255 254 258 261 267 268 261 259 273 280 285 286 285 291 294 298 300 303 305 305 304 303 300 297 295 291 286 282 280 276 274 275 270 270 268 266
245 248 247 256 256 253 252 250 251 254 259 266 270 276 278 280 282 285 288 287 288 290 294 297 300 301 301 301 300 300 300 299 298 295 293 290 287 283 279 274 272 269 267
236 233 236 246 249 249 252 252 252 266 278 283 282 280 279 280 282 281 283 284 286 289 294 296 298 299 299 298 298 297 296 294 292 291 290 290 289 288 284 282 279 274 269
243 242 247 252 252 252 254 259 265 274 282 292 290 287 281 278 279 279 280 281 284 287 290 293 297 298 298 297 295 294 292 291 289 288 287 286 285 285 285 284 281 278 274
250 253 259 254 254 258 259 261 264 269 276 283 290 291 289 284 278 276 278 278 281 283 286 288 293 296 299 298 297 295 293 289 287 285 284 285 283 280 279 280 280 278 276
252 255 258 257 259 263 265 266 267 269 273 278 282 287 291 292 285 277 275 276 277 278 280 282 286 290 293 296 297 297 295 291 285 282 280 282 278 275 274 274 275 275 273